AEZ4104 LIML-LIEO

Flight info

Callsign AEZ4104
Flight time 0h 59m
Altitude 37000
Route EKPAL DCT TINKU DCT NEMIT DCT BATOX
Aircraft A319/M-SDE3FGHIRWY/LB1

Departure

Time 2026-05-07 14:45
Airport Milano Linate Airport (LIML)

Arrival

Time 2026-05-07 15:44
Airport Olbia Costa Smeralda Airport (LIEO)
Time Latitude Longitude Altitude Speed Heading
2026-05-07 14:25 45.45983 9.27904 364 ft 0 kts
2026-05-07 14:38 45.45977 9.27904 364 ft 2 kts 12°
2026-05-07 14:38 45.45963 9.27897 364 ft 2 kts 30°
2026-05-07 14:38 45.45952 9.27883 363 ft 2 kts 50°
2026-05-07 14:39 45.45943 9.27865 363 ft 2 kts 70°
2026-05-07 14:39 45.45940 9.27844 363 ft 2 kts 90°
2026-05-07 14:39 45.45941 9.27838 363 ft 0 kts 95°
2026-05-07 14:41 45.45939 9.27840 363 ft 0 kts 127°
2026-05-07 14:42 45.45920 9.27852 363 ft 6 kts 171°
2026-05-07 14:42 45.45868 9.27845 363 ft 8 kts 188°
2026-05-07 14:42 45.45803 9.27832 362 ft 10 kts 186°
2026-05-07 14:42 45.45723 9.27822 362 ft 12 kts 182°
2026-05-07 14:43 45.45629 9.27820 361 ft 14 kts 180°
2026-05-07 14:43 45.45528 9.27819 361 ft 15 kts 179°
2026-05-07 14:43 45.45455 9.27781 360 ft 5 kts 220°
2026-05-07 14:43 45.45445 9.27769 360 ft 1 kts 219°
2026-05-07 14:44 45.45436 9.27758 360 ft 3 kts 223°
2026-05-07 14:44 45.45402 9.27690 360 ft 13 kts 244°
2026-05-07 14:44 45.45322 9.27619 359 ft 16 kts 175°
2026-05-07 14:44 45.45028 9.27645 357 ft 79 kts 177°
2026-05-07 14:45 45.44235 9.27736 352 ft 146 kts 175°
2026-05-07 14:45 45.43140 9.27853 734 ft 166 kts 175°
2026-05-07 14:45 45.41929 9.27992 1180 ft 183 kts 175°
2026-05-07 14:45 45.40587 9.28139 1706 ft 202 kts 175°
2026-05-07 14:46 45.39119 9.28300 2231 ft 224 kts 175°
2026-05-07 14:46 45.37500 9.28477 2858 ft 243 kts 175°
2026-05-07 14:46 45.35757 9.28669 3522 ft 260 kts 175°
2026-05-07 14:46 45.33924 9.28869 4429 ft 267 kts 175°
2026-05-07 14:47 45.32096 9.29068 5394 ft 270 kts 175°
2026-05-07 14:47 45.30203 9.29272 6351 ft 273 kts 175°
2026-05-07 14:47 45.28325 9.29475 7263 ft 277 kts 175°
2026-05-07 14:47 45.26389 9.29684 8173 ft 281 kts 175°
2026-05-07 14:48 45.24440 9.29894 9062 ft 284 kts 175°
2026-05-07 14:48 45.22473 9.30106 9930 ft 288 kts 175°
2026-05-07 14:48 45.20463 9.30322 10681 ft 296 kts 175°
2026-05-07 14:48 45.18331 9.30551 11150 ft 314 kts 175°
2026-05-07 14:49 45.16107 9.30790 11555 ft 332 kts 175°
2026-05-07 14:49 45.13748 9.31044 11921 ft 350 kts 175°
2026-05-07 14:49 45.11263 9.31311 12452 ft 361 kts 175°
2026-05-07 14:49 45.08741 9.31581 13203 ft 365 kts 175°
2026-05-07 14:50 45.06195 9.31853 13953 ft 368 kts 175°
2026-05-07 14:50 45.03643 9.32126 14658 ft 372 kts 175°
2026-05-07 14:50 45.01067 9.32401 15337 ft 376 kts 175°
2026-05-07 14:50 44.98427 9.32682 16008 ft 380 kts 175°
2026-05-07 14:51 44.95786 9.33014 16648 ft 383 kts 171°
2026-05-07 14:51 44.93270 9.34236 17229 ft 387 kts 150°
2026-05-07 14:51 44.91203 9.36612 17839 ft 390 kts 130°
2026-05-07 14:51 44.89669 9.39782 18454 ft 393 kts 121°
2026-05-07 14:52 44.88226 9.43092 19020 ft 396 kts 121°
2026-05-07 14:52 44.86773 9.46413 19564 ft 400 kts 121°
2026-05-07 14:52 44.85300 9.49749 20104 ft 403 kts 121°
2026-05-07 14:52 44.83825 9.53068 20626 ft 407 kts 122°
2026-05-07 14:53 44.82309 9.56462 21143 ft 410 kts 122°
2026-05-07 14:53 44.80778 9.59879 21646 ft 413 kts 122°
2026-05-07 14:53 44.79258 9.63264 22128 ft 416 kts 122°
2026-05-07 14:53 44.77690 9.66752 22608 ft 419 kts 122°
2026-05-07 14:54 44.76127 9.70224 23071 ft 422 kts 122°
2026-05-07 14:54 44.74542 9.73739 23524 ft 425 kts 122°
2026-05-07 14:54 44.72951 9.77261 23964 ft 428 kts 122°
2026-05-07 14:54 44.71370 9.80757 24388 ft 430 kts 122°
2026-05-07 14:55 44.69720 9.84309 24806 ft 433 kts 124°
2026-05-07 14:55 44.67904 9.87741 25215 ft 436 kts 128°
2026-05-07 14:55 44.65932 9.90983 25611 ft 439 kts 132°
2026-05-07 14:55 44.63836 9.94061 25995 ft 441 kts 134°
2026-05-07 14:56 44.61681 9.97171 26377 ft 444 kts 134°
2026-05-07 14:56 44.59530 10.00268 26747 ft 446 kts 134°
2026-05-07 14:56 44.57349 10.03407 27109 ft 449 kts 134°
2026-05-07 14:56 44.55163 10.06555 27462 ft 451 kts 134°
2026-05-07 14:57 44.52974 10.09707 27811 ft 453 kts 134°
2026-05-07 14:57 44.50720 10.12790 28132 ft 456 kts 139°
2026-05-07 14:57 44.48191 10.15495 28455 ft 458 kts 146°
2026-05-07 14:57 44.45456 10.17698 28862 ft 457 kts 154°
2026-05-07 14:58 44.42529 10.19441 29324 ft 455 kts 158°
2026-05-07 14:58 44.39571 10.21016 29770 ft 454 kts 159°
2026-05-07 14:58 44.36619 10.22557 30182 ft 453 kts 159°
2026-05-07 14:58 44.33698 10.24082 30585 ft 453 kts 159°
2026-05-07 14:59 44.30737 10.25632 30988 ft 452 kts 159°
2026-05-07 14:59 44.27794 10.27177 31386 ft 451 kts 159°
2026-05-07 14:59 44.24891 10.28704 31774 ft 450 kts 159°
2026-05-07 14:59 44.21964 10.30243 32155 ft 450 kts 159°
2026-05-07 15:00 44.19028 10.31787 32528 ft 449 kts 159°
2026-05-07 15:00 44.16116 10.33317 32893 ft 448 kts 159°
2026-05-07 15:00 44.13205 10.34846 33246 ft 447 kts 159°
2026-05-07 15:00 44.10295 10.36372 33593 ft 447 kts 159°
2026-05-07 15:01 44.07367 10.37906 33934 ft 446 kts 159°
2026-05-07 15:01 44.04495 10.39409 34259 ft 445 kts 159°
2026-05-07 15:01 44.01595 10.40926 34582 ft 445 kts 159°
2026-05-07 15:01 43.98703 10.42437 34896 ft 444 kts 159°
2026-05-07 15:02 43.95806 10.43948 35197 ft 443 kts 159°
2026-05-07 15:02 43.92918 10.45454 35460 ft 444 kts 159°
2026-05-07 15:02 43.90049 10.46948 35680 ft 444 kts 159°
2026-05-07 15:02 43.87142 10.48460 35881 ft 446 kts 159°
2026-05-07 15:03 43.84208 10.49954 36075 ft 446 kts 161°
2026-05-07 15:03 43.81234 10.51164 36270 ft 447 kts 166°
2026-05-07 15:03 43.78185 10.52031 36431 ft 448 kts 171°
2026-05-07 15:03 43.75106 10.52539 36588 ft 449 kts 175°
2026-05-07 15:04 43.71973 10.52689 36736 ft 450 kts 180°
2026-05-07 15:04 43.68862 10.52475 36877 ft 451 kts 185°
2026-05-07 15:04 43.65723 10.51922 36988 ft 452 kts 188°
2026-05-07 15:04 43.62643 10.51287 36990 ft 453 kts 188°
2026-05-07 15:05 43.56395 10.49980 36993 ft 453 kts 188°
2026-05-07 15:05 43.50177 10.48693 36994 ft 453 kts 188°
2026-05-07 15:06 43.43957 10.47417 36995 ft 453 kts 188°
2026-05-07 15:06 43.37722 10.46144 36995 ft 453 kts 188°
2026-05-07 15:07 43.31493 10.44875 36995 ft 453 kts 188°
2026-05-07 15:07 43.25255 10.43607 36995 ft 453 kts 188°
2026-05-07 15:08 43.19034 10.42346 36995 ft 453 kts 188°
2026-05-07 15:08 43.12758 10.41076 36995 ft 453 kts 188°
2026-05-07 15:09 43.06544 10.39821 36995 ft 453 kts 188°
2026-05-07 15:09 43.00322 10.38566 36995 ft 453 kts 188°
2026-05-07 15:10 42.94101 10.37315 36995 ft 453 kts 188°
2026-05-07 15:10 42.87865 10.36063 36995 ft 453 kts 188°
2026-05-07 15:11 42.81650 10.34818 36995 ft 453 kts 188°
2026-05-07 15:11 42.75407 10.33570 36995 ft 453 kts 188°
2026-05-07 15:12 42.69179 10.32328 36995 ft 453 kts 188°
2026-05-07 15:12 42.62939 10.31085 36995 ft 453 kts 188°
2026-05-07 15:13 42.56702 10.29845 36995 ft 453 kts 188°
2026-05-07 15:13 42.50464 10.28608 36995 ft 453 kts 188°
2026-05-07 15:14 42.44235 10.27374 36995 ft 453 kts 188°
2026-05-07 15:14 42.37983 10.26144 36995 ft 453 kts 187°
2026-05-07 15:15 42.31730 10.25406 36996 ft 453 kts 184°
2026-05-07 15:15 42.25428 10.24842 36995 ft 453 kts 184°
2026-05-07 15:16 42.19174 10.24282 36995 ft 453 kts 184°
2026-05-07 15:16 42.15998 10.23998 36841 ft 453 kts 184°
2026-05-07 15:16 42.12868 10.23719 36595 ft 451 kts 184°
2026-05-07 15:17 42.09776 10.23442 36355 ft 448 kts 184°
2026-05-07 15:17 42.06654 10.23164 36100 ft 445 kts 184°
2026-05-07 15:17 42.03569 10.22889 35850 ft 443 kts 184°
2026-05-07 15:17 42.00502 10.22616 35600 ft 442 kts 184°
2026-05-07 15:18 41.97447 10.22345 35351 ft 443 kts 184°
2026-05-07 15:18 41.94355 10.22070 35099 ft 443 kts 184°
2026-05-07 15:18 41.91295 10.21798 34849 ft 444 kts 184°
2026-05-07 15:18 41.88204 10.21524 34598 ft 444 kts 184°
2026-05-07 15:19 41.85120 10.21251 34348 ft 445 kts 184°
2026-05-07 15:19 41.82030 10.20978 34096 ft 445 kts 184°
2026-05-07 15:19 41.78904 10.20702 33829 ft 446 kts 184°
2026-05-07 15:19 41.75778 10.20426 33407 ft 447 kts 184°
2026-05-07 15:20 41.72609 10.20146 32817 ft 448 kts 184°
2026-05-07 15:20 41.69448 10.19867 32128 ft 448 kts 184°
2026-05-07 15:20 41.66208 10.19582 31368 ft 450 kts 184°
2026-05-07 15:20 41.62989 10.19299 30585 ft 451 kts 184°
2026-05-07 15:21 41.59677 10.19008 29756 ft 453 kts 184°
2026-05-07 15:21 41.56368 10.18718 28907 ft 454 kts 184°
2026-05-07 15:21 41.52998 10.18423 28032 ft 455 kts 184°
2026-05-07 15:21 41.49697 10.18134 27468 ft 449 kts 184°
2026-05-07 15:22 41.46441 10.17849 26927 ft 442 kts 184°
2026-05-07 15:22 41.43248 10.17569 26379 ft 436 kts 184°
2026-05-07 15:22 41.40037 10.17289 25820 ft 431 kts 184°
2026-05-07 15:22 41.36938 10.17018 25273 ft 426 kts 184°
2026-05-07 15:23 41.33813 10.16745 24717 ft 421 kts 184°
2026-05-07 15:23 41.30738 10.16477 24167 ft 417 kts 184°
2026-05-07 15:23 41.27629 10.16207 23605 ft 412 kts 184°
2026-05-07 15:23 41.24541 10.15905 23034 ft 409 kts 187°
2026-05-07 15:24 41.21465 10.14740 22428 ft 405 kts 205°
2026-05-07 15:24 41.18871 10.12482 21850 ft 401 kts 222°
2026-05-07 15:24 41.16756 10.09692 21308 ft 398 kts 226°
2026-05-07 15:24 41.14698 10.06838 20754 ft 395 kts 226°
2026-05-07 15:25 41.12693 10.04058 20213 ft 392 kts 226°
2026-05-07 15:25 41.10762 10.01402 19692 ft 390 kts 226°
2026-05-07 15:25 41.08843 9.98779 19175 ft 388 kts 226°
2026-05-07 15:25 41.06949 9.96198 18663 ft 386 kts 226°
2026-05-07 15:26 41.05049 9.93619 18149 ft 384 kts 226°
2026-05-07 15:26 41.03187 9.91093 17643 ft 382 kts 226°
2026-05-07 15:26 41.01322 9.88569 17133 ft 380 kts 226°
2026-05-07 15:26 40.99490 9.86093 16633 ft 378 kts 226°
2026-05-07 15:27 40.97658 9.83617 16131 ft 376 kts 226°
2026-05-07 15:27 40.95811 9.81124 15621 ft 375 kts 226°
2026-05-07 15:27 40.94002 9.78686 15119 ft 373 kts 226°
2026-05-07 15:27 40.92202 9.76260 14654 ft 369 kts 226°
2026-05-07 15:28 40.90424 9.73866 14459 ft 357 kts 226°
2026-05-07 15:28 40.88698 9.71543 14276 ft 346 kts 226°
2026-05-07 15:28 40.87048 9.69324 14102 ft 335 kts 226°
2026-05-07 15:28 40.85438 9.67161 13940 ft 324 kts 226°
2026-05-07 15:29 40.83876 9.65065 13792 ft 313 kts 226°
2026-05-07 15:29 40.82377 9.63055 13659 ft 303 kts 226°
2026-05-07 15:29 40.80928 9.61112 13538 ft 292 kts 226°
2026-05-07 15:29 40.79552 9.59168 13424 ft 282 kts 230°
2026-05-07 15:30 40.78364 9.57164 13170 ft 278 kts 235°
2026-05-07 15:30 40.77263 9.55076 12828 ft 277 kts 236°
2026-05-07 15:30 40.76179 9.52989 12502 ft 275 kts 236°
2026-05-07 15:30 40.75106 9.50927 12185 ft 273 kts 236°
2026-05-07 15:31 40.74021 9.48849 11867 ft 272 kts 236°
2026-05-07 15:31 40.72959 9.46825 11557 ft 269 kts 236°
2026-05-07 15:31 40.71896 9.44802 11248 ft 267 kts 236°
2026-05-07 15:31 40.70838 9.42792 10940 ft 265 kts 236°
2026-05-07 15:32 40.69794 9.40809 10637 ft 263 kts 236°
2026-05-07 15:32 40.68756 9.38839 10335 ft 261 kts 236°
2026-05-07 15:32 40.67722 9.36880 10034 ft 259 kts 236°
2026-05-07 15:32 40.66694 9.34933 9736 ft 257 kts 235°
2026-05-07 15:33 40.65671 9.32995 9454 ft 254 kts 235°
2026-05-07 15:33 40.64689 9.31137 9325 ft 246 kts 235°
2026-05-07 15:33 40.63720 9.29299 9049 ft 244 kts 235°
2026-05-07 15:33 40.62748 9.27457 8768 ft 242 kts 235°
2026-05-07 15:34 40.61817 9.25632 8476 ft 241 kts 242°
2026-05-07 15:34 40.61447 9.23521 8158 ft 239 kts 276°
2026-05-07 15:34 40.62009 9.21486 7864 ft 237 kts 307°
2026-05-07 15:34 40.63234 9.20061 7598 ft 235 kts 326°
2026-05-07 15:35 40.64576 9.18883 7332 ft 233 kts 326°
2026-05-07 15:35 40.65923 9.17690 7060 ft 231 kts 326°
2026-05-07 15:35 40.67254 9.16488 6790 ft 229 kts 325°
2026-05-07 15:35 40.68621 9.15459 6489 ft 227 kts 346°
2026-05-07 15:36 40.70144 9.15543 6350 ft 217 kts 22°
2026-05-07 15:36 40.71346 9.16641 6196 ft 206 kts 46°
2026-05-07 15:36 40.72237 9.18078 5956 ft 200 kts 53°
2026-05-07 15:36 40.73056 9.19548 5724 ft 194 kts 54°
2026-05-07 15:37 40.73815 9.20961 5554 ft 184 kts 55°
2026-05-07 15:37 40.74517 9.22291 5388 ft 171 kts 55°
2026-05-07 15:37 40.75174 9.23548 5185 ft 159 kts 55°
2026-05-07 15:37 40.75781 9.24715 4959 ft 149 kts 55°
2026-05-07 15:38 40.76344 9.25801 4759 ft 140 kts 55°
2026-05-07 15:38 40.76889 9.26854 4595 ft 139 kts 55°
2026-05-07 15:38 40.77432 9.27903 4438 ft 138 kts 55°
2026-05-07 15:38 40.77976 9.28953 4446 ft 138 kts 55°
2026-05-07 15:39 40.78519 9.30003 4338 ft 139 kts 55°
2026-05-07 15:39 40.79062 9.31049 4128 ft 138 kts 55°
2026-05-07 15:39 40.79608 9.32102 3910 ft 138 kts 55°
2026-05-07 15:39 40.80149 9.33142 3697 ft 137 kts 55°
2026-05-07 15:40 40.80686 9.34175 3484 ft 137 kts 55°
2026-05-07 15:40 40.81223 9.35206 3272 ft 136 kts 55°
2026-05-07 15:40 40.81760 9.36238 3061 ft 136 kts 55°
2026-05-07 15:40 40.82295 9.37263 2851 ft 135 kts 55°
2026-05-07 15:41 40.82832 9.38292 2641 ft 135 kts 55°
2026-05-07 15:41 40.83364 9.39314 2432 ft 135 kts 55°
2026-05-07 15:41 40.83898 9.40336 2223 ft 134 kts 55°
2026-05-07 15:41 40.84421 9.41339 2017 ft 134 kts 55°
2026-05-07 15:42 40.84950 9.42351 1810 ft 133 kts 55°
2026-05-07 15:42 40.85481 9.43368 1601 ft 133 kts 55°
2026-05-07 15:42 40.86004 9.44370 1396 ft 133 kts 55°
2026-05-07 15:42 40.86526 9.45368 1191 ft 132 kts 55°
2026-05-07 15:43 40.87051 9.46373 985 ft 132 kts 55°
2026-05-07 15:43 40.87569 9.47366 781 ft 131 kts 55°
2026-05-07 15:43 40.88088 9.48358 578 ft 131 kts 55°
2026-05-07 15:43 40.88605 9.49348 375 ft 131 kts 55°
2026-05-07 15:44 40.89126 9.50344 171 ft 130 kts 55°
2026-05-07 15:44 40.89627 9.51302 46 ft 113 kts 55°
2026-05-07 15:44 40.89903 9.51828 46 ft 25 kts 55°
2026-05-07 15:44 40.89933 9.51886 46 ft 8 kts 55°
2026-05-07 15:45 40.90019 9.52000 46 ft 24 kts 24°
2026-05-07 15:45 40.90142 9.52027 46 ft 9 kts 346°
2026-05-07 15:45 40.90171 9.51959 46 ft 9 kts 277°
2026-05-07 15:45 40.90184 9.51865 46 ft 11 kts 285°
2026-05-07 15:46 40.90245 9.51723 46 ft 7 kts 322°
2026-05-07 15:46 40.90263 9.51707 46 ft 0 kts 324°